Temp
12 12 12 12 13 11 12 10 9 8 9 8 6 5 5 5 6 6 4 4 3 2
12 12 12 11 12 12 11 11 10 9 9 8 7 4 5 5 5 4 4 4 3 1
12 11 11 11 11 11 12 10 10 9 8 8 6 4 5 5 4 2 3 2 2 1
11 12 11 10 10 9 10 10 9 8 8 6 5 5 4 3 2 2 2 2 1 -0
11 11 10 10 9 9 9 9 8 8 7 6 6 5 5 1 1 1 1 1 -1 -0
11 11 9 9 9 9 9 9 8 6 6 5 5 4 2 1 1 1 1 0 -0 0
10 9 9 9 8 8 8 7 6 6 5 4 3 2 1 1 1 1 -0 -0 -1 -0
9 9 8 8 8 8 7 6 5 4 3 2 1 1 1 1 0 -0 -1 -1 -1 -0
8 8 7 7 6 6 6 5 4 3 2 1 2 1 0 -0 -1 -1 -1 -1 -0 0
6 6 5 4 5 5 3 3 2 2 1 1 1 0 -0 -1 -1 -2 -1 -1 -1 -0
3 4 3 4 3 3 2 1 1 1 0 -0 -0 -1 -1 -1 -1 -1 -2 -2 -1 -1
3 4 3 3 2 1 1 0 -1 -1 -0 -1 -1 -1 -2 -2 -2 -3 -3 -3 -2 -2
2 1 1 1 0 0 0 0 -0 -1 -1 -2 -2 -2 -3 -2 -3 -3 -4 -4 -4 -4
2 1 0 0 0 -0 -0 -1 -2 -1 -3 -3 -3 -4 -4 -3 -3 -4 -4 -4 -5 -6
Height
1510 1512 1514 1516 1514 1517 1517 1519 1521 1523 1523 1523 1525 1526 1530 1529 1533 1532 1535 1535 1537 1539
1504 1507 1508 1507 1510 1512 1512 1512 1514 1516 1516 1518 1520 1521 1523 1526 1527 1527 1529 1529 1530 1533
1496 1499 1502 1503 1503 1505 1505 1508 1509 1509 1510 1510 1510 1516 1519 1520 1520 1524 1525 1526 1526 1527
1489 1492 1495 1498 1499 1500 1501 1502 1503 1504 1504 1504 1508 1514 1515 1516 1516 1520 1521 1523 1522 1523
1485 1487 1489 1491 1494 1495 1496 1496 1497 1500 1501 1503 1507 1509 1509 1513 1517 1518 1518 1519 1520 1521
1480 1482 1484 1486 1489 1490 1491 1493 1494 1495 1496 1499 1502 1504 1506 1510 1512 1513 1512 1513 1516 1516
1477 1479 1481 1483 1484 1486 1487 1488 1490 1492 1495 1498 1501 1502 1505 1507 1508 1508 1508 1509 1509 1510
1473 1475 1477 1479 1481 1483 1484 1486 1489 1491 1494 1496 1499 1502 1503 1503 1503 1502 1503 1504 1504 1504
1472 1474 1476 1477 1479 1481 1483 1485 1488 1491 1494 1496 1498 1499 1499 1499 1498 1498 1499 1499 1499 1498
1471 1474 1475 1477 1479 1481 1484 1487 1490 1492 1494 1495 1495 1495 1494 1494 1494 1494 1494 1493 1492 1490
1472 1473 1475 1477 1480 1483 1485 1488 1489 1490 1491 1492 1492 1492 1492 1492 1490 1489 1488 1487 1485 1483
1472 1474 1476 1478 1480 1483 1484 1486 1487 1488 1490 1492 1493 1490 1488 1486 1485 1483 1481 1480 1478 1475
1473 1475 1476 1478 1479 1481 1484 1486 1487 1488 1488 1488 1488 1485 1482 1480 1478 1475 1473 1470 1467 1464
1472 1474 1476 1478 1480 1482 1483 1483 1483 1483 1483 1483 1483 1481 1476 1474 1472 1469 1464 1461 1456 1454
Wind_Speed
27 27 26 28 23 26 24 28 25 28 29 31 31 26 24 30 27 25 24 22 21 18
29 29 26 30 29 27 28 31 29 30 28 28 23 27 32 28 28 27 25 23 20 18
32 31 29 27 28 30 29 25 22 23 28 29 30 34 27 29 28 24 24 20 18 19
31 28 28 28 30 29 26 23 22 27 27 26 27 20 26 26 24 23 19 19 19 15
23 20 21 18 20 22 23 23 25 27 24 13 14 20 26 20 16 12 17 19 14 18
20 16 18 20 20 21 19 21 23 22 17 18 20 21 16 16 13 14 16 13 17 21
17 15 15 15 15 14 14 12 11 15 19 18 13 12 13 11 15 15 11 18 21 22
13 12 9 8 8 8 9 10 8 10 14 10 12 10 13 16 16 16 21 18 21 22
8 8 8 7 5 6 9 8 8 9 9 8 9 13 14 17 17 19 16 19 21 24
12 12 10 10 9 7 6 7 6 6 8 11 13 16 15 11 14 15 17 20 23 26
15 13 12 9 9 7 6 5 5 7 9 10 7 13 13 15 19 22 22 23 25 28
14 12 9 8 7 5 3 3 2 2 1 4 5 14 19 21 20 21 22 23 25 27
12 11 9 3 1 3 4 3 3 3 4 7 7 13 20 23 25 26 27 28 28 30
7 6 7 7 6 5 4 2 3 5 6 7 8 9 20 24 25 25 29 32 35 34
Wind_Direction
225 226 228 227 241 249 250 258 258 254 259 247 238 223 216 227 241 249 238 256 264 259
225 223 225 233 234 238 245 246 266 266 255 254 249 220 228 237 246 247 244 259 262 260
235 233 226 227 232 236 246 258 262 258 257 247 229 226 239 246 246 235 255 259 267 274
234 242 244 245 239 241 258 265 258 246 250 233 226 240 251 248 240 248 264 278 277 258
240 243 236 243 243 245 252 249 251 245 248 221 243 251 254 239 249 276 287 283 265 255
232 226 226 231 239 254 257 261 254 246 210 216 233 241 235 232 250 291 283 263 260 258
217 221 229 240 247 249 247 237 230 225 225 224 236 215 212 251 292 285 271 260 257 258
208 215 212 219 226 229 222 205 215 219 215 217 200 231 271 277 289 264 261 263 263 265
179 185 174 172 181 189 193 199 187 183 182 193 262 278 279 285 281 276 274 273 271 270
148 152 146 148 154 158 142 152 162 193 235 267 281 291 287 279 277 276 275 276 277 276
131 128 126 122 129 139 148 170 218 256 281 299 331 303 297 289 285 284 282 283 284 282
128 125 130 141 148 168 209 259 301 12 337 273 284 285 285 286 288 289 288 287 285 284
126 128 137 154 180 99 108 158 184 233 269 278 298 291 284 286 289 290 290 287 286 280
138 120 123 134 142 148 169 188 256 290 278 291 289 285 284 288 291 293 294 297 297 295